Regional Weather Roundup
Issued by NWS

Home | Current Version | Previous Version | Text Only | Print | Product List | Glossary On
Versions: 1 2 3 4 5 6 7 8 9 10 11 12 13 14 15 16 17 18 19 20 21 22 23 24 25 26 27 28 29 30 31 32 33 34 35 36 37 38 39 40 41 42 43 44 45 46 47 48 49 50
000
ASMX46 KSGX 240304
RWRMX

MEXICAN WEATHER ROUNDUP
NATIONAL WEATHER SERVICE SAN DIEGO CA
700 PM PST THU NOV 23 2017

BAJA CALIFORNIA

CITY           SKY/WX    TMP DP  RH WIND       PRES   REMARKS
ENSENADA NW      N/A     73  32  22 CALM      29.85S
LA PAZ         CLEAR     68  57  68 CALM      29.93R
MEXICALI       CLEAR     77  37  24 W5        29.90S
S.J. DEL CABO  CLEAR     70  57  64 W3        29.93R
TIJUANA        PTCLDY    72  36  26 CALM      29.96S

NORTHWESTERN MEXICO

CITY           SKY/WX    TMP DP  RH WIND       PRES   REMARKS
CHIHUAHUA      CLEAR     45  19  36 S8        30.20S
CULIACAN       CLEAR     73  59  60 CALM      29.90R
GUAYMAS          N/A    N/A N/A N/A MISG        N/A
HERMOSILLO     CLEAR     79  34  19 NW6       29.89S
JUAREZ         PTCLDY    57  27  30 SW3       30.16S
LOS MOCHIS     CLEAR     70  57  64 CALM      29.90R

NORTHEASTERN MEXICO

CITY           SKY/WX    TMP DP  RH WIND       PRES   REMARKS
MONCLOVA         N/A    N/A N/A N/A MISG        N/A
MONTERREY      CLEAR     57  37  47 SE5       30.10R
REYNOSA        CLEAR     63  28  27 CALM      30.18R
SALTILLO       CLEAR     50  37  62 CALM      30.26R
TORREON        CLEAR     63  28  27 CALM      30.18R
VICTORIA         N/A    N/A N/A N/A MISG        N/A

WESTERN MEXICO

CITY           SKY/WX    TMP DP  RH WIND       PRES   REMARKS
AGUASCALIENTES CLEAR     50  23  34 NE7       30.26R
COLIMA           N/A    N/A N/A N/A MISG        N/A
DURANGO        CLEAR     48  14  25 NW7       30.27S
GUADALAJARA    CLEAR     50  34  53 CALM      30.16R
MAZATLAN       CLEAR     70  64  83 CALM      29.90R
PTO. VALLARTA  CLEAR     75  66  73 NE3       29.91
TEPIC          CLEAR     59  55  88 CALM      30.07R
URUAPAN          N/A    N/A N/A N/A MISG        N/A
ZACATECAS      CLEAR     39  12  33 CALM      30.29R

CENTRAL MEXICO

CITY           SKY/WX    TMP DP  RH WIND       PRES   REMARKS
CUERNAVACA       N/A    N/A N/A N/A MISG        N/A
LEON           CLEAR     52  32  46 N6        30.27R
MEXICO CITY    CLEAR     57  23  26 N7        30.30R
MORELIA        CLEAR     48  30  49 CALM      30.22R
POZA RICA        N/A    N/A N/A N/A MISG        N/A
QUERETARO      CLEAR     50  28  43 S6        30.30R
S. LUIS POTOSI CLEAR     48  25  40 CALM      30.24R
TAMPICO        CLEAR     63  52  67 NE12      30.12
TOLUCA         CLEAR     48  39  71 MISG      30.34R
VERACRUZ       CLOUDY    72  59  64 NE8       30.10R

SOUTHERN MEXICO

CITY           SKY/WX    TMP DP  RH WIND       PRES   REMARKS
ACAPULCO       CLEAR     77  72  83 E2        29.91R
B. DE HUATULCO   N/A    N/A N/A N/A MISG        N/A
MINATITLAN       N/A    N/A N/A N/A MISG        N/A
PTO. ESCONDIDO   N/A    N/A N/A N/A MISG        N/A
TAPACHULA      PTCLDY    73  72  94 CALM      29.88R
TUX. GUTIERREZ PTCLDY    66  59  77 NW12      30.09R
VILLAHERMOSA   PTCLDY    68  68 100 CALM      30.09R
ZIHUATANEJO    CLEAR     79  68  69 NE5       29.91R

YUCATAN PENINSULA

CITY           SKY/WX    TMP DP  RH WIND       PRES   REMARKS
CAMPECHE       PTCLDY    77  64  65 N12       29.98R
CANCUN         PTCLDY    70  70 100 S3        29.94
CHETUMAL         N/A    N/A N/A N/A MISG        N/A
C. DEL CARMEN    N/A    N/A N/A N/A MISG        N/A
COZUMEL        PTCLDY    75  70  83 NW10      29.93R
MERIDA         CLEAR     68  64  88 NW3       30.00R

$$





USA.gov is the U.S. government's official web portal to all federal, state and local government web resources and services.